Weather in Pierre

United States     44°21′46″N   100°19′51″W
temp.,
°C
wind,
m/s
gust,
m/s
humid.,
%
clouds,
%
prec.,
mm/h
press.,
hPa
HPBL,
m
23 may, mon
mon2301:00+6ese410644 0.0 1025182
04:00+5se5126866 0.0 1024265
07:00+7sse61269100 0.0 1022247
10:00+14ssw6950100 0.0 10211002
13:00+14ssw8954100 0.0 10211166
16:00+14sse71155100 0.0 10201599
19:00+11s81068100 0.1 1020934
22:00+10sse61071100 0.0 1021667
24 may, tue
tue2401:00+9sse4779100 0.0 1020310
04:00+9s4980100 0.0 1020385
07:00+8sse46905 0.0 1020212
10:00+13sse566496 0.0 1018986
13:00+16sse5552100 0.1 10181690
16:00+17se3550100 0.0 10171371
19:00+17se4553100 0.0 10161234
22:00+12sse3770100 0.0 1017140
25 may, wed
wed2501:00+11sse3680100 0.1 1017147
04:00+9sse3587100 0.0 101788
07:00+9sse3490100 0.0 101791
10:00+14se2364100 0.0 1015781
13:00+17ese435291 0.0 10141539
16:00+18ese224814 0.0 10111562
19:00+18ese54515 0.0 10111185
22:00+12se511793 0.0 1013248
26 may, thu
thu2601:00+10sse49905 0.0 1013195
04:00+9s47905 0.0 1013116
07:00+10s47850 0.0 1013138
10:00+19sw34512 0.0 1012461
13:00+25wnw34375 0.0 10101579
16:00+28nw69265 0.0 10093216
19:00+26nnw46323 0.0 10081119
22:00+17ese47731 0.0 1010117
27 may, fri
fri2701:00+14ese47900 0.0 1011131
04:00+13sse35903 0.0 101168
07:00+13se35855 0.0 101299
10:00+21se565688 0.0 1010468
13:00+26se773886 0.0 10081376
16:00+28se89349 0.0 10061676
19:00+27se811445 0.0 10041254
22:00+21se101967100 0.3 1004597